Time,TemperatureF,DewpointF,PressureIn,WindDirection,WindDirectionDegrees,WindSpeedMPH,WindSpeedGustMPH,Humidity,HourlyPrecipIn,Conditions,Clouds,dailyrainin,SoftwareType,DateUTC
2013-01-31 00:03:00,41.0,40.0,29.38,SW,230,327.0,327.0,97,-99.99,,,-99.99,,2013-01-31 05:03:00,
2013-01-31 00:11:00,41.0,40.0,29.38,SW,230,327.0,327.0,97,-99.99,,,-99.99,,2013-01-31 05:11:00,
2013-01-31 00:22:00,41.0,40.0,29.37,SW,222,327.0,327.0,97,-99.99,,,-99.99,,2013-01-31 05:22:00,
2013-01-31 00:32:00,41.0,40.0,29.37,SW,222,327.0,327.0,97,-99.99,,,-99.99,,2013-01-31 05:32:00,
2013-01-31 00:42:00,41.0,40.0,29.36,SW,222,0.0,2.0,97,0.02,,,0.41,,2013-01-31 05:42:00,
2013-01-31 00:52:00,41.0,40.0,29.36,SW,222,0.0,2.0,97,0.02,,,0.41,,2013-01-31 05:52:00,
2013-01-31 01:01:00,41.0,40.0,29.36,SW,222,0.0,2.0,97,0.02,,,0.41,,2013-01-31 06:01:00,
2013-01-31 01:10:00,41.0,40.0,29.36,SW,222,0.0,2.0,97,0.02,,,0.41,,2013-01-31 06:10:00,
2013-01-31 09:03:00,51.0,50.0,28.84,SSW,208,2.0,7.0,97,0.01,,,0.74,,2013-01-31 14:03:00,
2013-01-31 09:11:00,51.0,50.0,28.84,SSW,208,2.0,7.0,97,0.01,,,0.74,,2013-01-31 14:11:00,
2013-01-31 09:22:00,52.0,51.0,28.82,South,176,5.0,10.0,97,0.00,,,0.74,,2013-01-31 14:22:00,
2013-01-31 09:32:00,52.0,51.0,28.81,SSW,196,2.0,8.0,97,0.00,,,0.74,,2013-01-31 14:32:00,
2013-01-31 09:42:00,52.0,51.0,28.81,SSW,196,2.0,8.0,97,0.00,,,0.74,,2013-01-31 14:42:00,
2013-01-31 09:52:00,52.0,51.0,28.83,SW,218,5.0,19.0,97,0.03,,,0.77,,2013-01-31 14:52:00,
2013-01-31 10:03:00,46.0,45.0,28.88,NW,318,9.0,21.0,95,0.04,,,0.78,,2013-01-31 15:03:00,
2013-01-31 10:12:00,44.0,43.0,28.90,WSW,254,8.0,17.0,95,0.04,,,0.78,,2013-01-31 15:12:00,
2013-01-31 10:23:00,44.0,43.0,28.90,WSW,254,8.0,17.0,95,0.04,,,0.78,,2013-01-31 15:23:00,
2013-01-31 10:32:00,43.0,42.0,28.93,West,275,7.0,18.0,95,0.07,,,0.81,,2013-01-31 15:32:00,
2013-01-31 10:42:00,43.0,42.0,28.93,West,275,7.0,18.0,95,0.07,,,0.81,,2013-01-31 15:42:00,
2013-01-31 10:52:00,42.0,41.0,28.93,West,263,6.0,19.0,95,0.11,,,0.85,,2013-01-31 15:52:00,
2013-01-31 11:03:00,42.0,41.0,28.93,West,263,6.0,19.0,95,0.11,,,0.85,,2013-01-31 16:03:00,
2013-01-31 11:13:00,42.0,41.0,28.93,West,263,6.0,19.0,95,0.11,,,0.85,,2013-01-31 16:13:00,
2013-01-31 11:22:00,42.0,40.0,28.93,West,275,9.0,18.0,94,0.10,,,0.81,,2013-01-31 16:22:00,
2013-01-31 11:33:00,42.0,38.0,28.95,NW,317,8.0,21.0,85,0.07,,,0.81,,2013-01-31 16:33:00,
2013-01-31 11:42:00,42.0,38.0,28.95,NW,317,8.0,21.0,85,0.07,,,0.81,,2013-01-31 16:42:00,
2013-01-31 11:52:00,42.0,34.0,28.95,WNW,300,327.0,327.0,74,-99.99,,,-99.99,,2013-01-31 16:52:00,
2013-01-31 12:03:00,42.0,35.0,28.97,WNW,293,6.0,19.0,76,0.01,,,0.79,,2013-01-31 17:03:00,
2013-01-31 12:12:00,42.0,35.0,28.97,WNW,293,6.0,19.0,76,0.01,,,0.79,,2013-01-31 17:12:00,
2013-01-31 12:23:00,41.0,36.0,29.00,West,278,6.0,19.0,82,0.01,,,0.79,,2013-01-31 17:23:00,
2013-01-31 12:32:00,39.0,35.0,29.02,NW,320,6.0,18.0,85,0.02,,,0.80,,2013-01-31 17:32:00,
2013-01-31 12:43:00,39.0,35.0,29.02,NW,320,6.0,18.0,85,0.02,,,0.80,,2013-01-31 17:43:00,
2013-01-31 12:53:00,38.0,34.0,29.02,SW,223,327.0,327.0,86,-99.99,,,-99.99,,2013-01-31 17:53:00,
2013-01-31 13:03:00,39.0,33.0,29.03,NW,310,8.0,19.0,80,0.02,,,0.71,,2013-01-31 18:03:00,
2013-01-31 13:12:00,40.0,32.0,29.03,NNW,340,10.0,24.0,73,0.02,,,0.71,,2013-01-31 18:12:00,
2013-01-31 13:22:00,40.0,32.0,29.03,NNW,340,10.0,24.0,73,0.02,,,0.71,,2013-01-31 18:22:00,
2013-01-31 13:32:00,41.0,31.0,29.03,WSW,253,327.0,327.0,67,-99.99,,,-99.99,,2013-01-31 18:32:00,
2013-01-31 13:43:00,41.0,31.0,29.03,WSW,253,327.0,327.0,67,-99.99,,,-99.99,,2013-01-31 18:43:00,
2013-01-31 13:52:00,41.0,31.0,29.03,WSW,253,327.0,327.0,67,-99.99,,,-99.99,,2013-01-31 18:52:00,
2013-01-31 14:02:00,40.0,27.0,29.06,West,269,6.0,13.0,60,0.00,,,0.69,,2013-01-31 19:02:00,
2013-01-31 14:12:00,40.0,27.0,29.06,West,269,6.0,13.0,60,0.00,,,0.69,,2013-01-31 19:12:00,
2013-01-31 14:22:00,39.0,26.0,29.08,South,185,11.0,23.0,59,0.00,,,0.69,,2013-01-31 19:22:00,
2013-01-31 14:33:00,39.0,25.0,29.09,WNW,289,7.0,16.0,57,0.00,,,0.69,,2013-01-31 19:33:00,
2013-01-31 14:42:00,39.0,25.0,29.09,WNW,289,7.0,16.0,57,0.00,,,0.69,,2013-01-31 19:42:00,
2013-01-31 14:52:00,38.0,23.0,29.10,West,269,11.0,25.0,55,0.00,,,0.68,,2013-01-31 19:52:00,
2013-01-31 15:02:00,38.0,23.0,29.11,NNE,13,7.0,18.0,54,0.00,,,0.68,,2013-01-31 20:02:00,
2013-01-31 15:11:00,38.0,23.0,29.11,NNE,13,7.0,18.0,54,0.00,,,0.68,,2013-01-31 20:11:00,
2013-01-31 15:22:00,37.0,22.0,29.12,WNW,300,5.0,25.0,54,0.00,,,0.68,,2013-01-31 20:22:00,
2013-01-31 15:32:00,37.0,21.0,29.14,NW,322,5.0,13.0,53,0.00,,,0.68,,2013-01-31 20:32:00,
2013-01-31 15:42:00,36.0,21.0,29.15,West,267,6.0,20.0,54,0.00,,,0.67,,2013-01-31 20:42:00,
2013-01-31 15:52:00,36.0,21.0,29.15,West,267,6.0,20.0,54,0.00,,,0.67,,2013-01-31 20:52:00,
2013-01-31 16:02:00,36.0,20.0,29.17,North,355,5.0,21.0,52,0.00,,,0.67,,2013-01-31 21:02:00,
2013-01-31 16:12:00,36.0,19.0,29.19,NW,317,5.0,20.0,50,0.00,,,0.67,,2013-01-31 21:12:00,
2013-01-31 16:22:00,36.0,19.0,29.19,NW,317,5.0,20.0,50,0.00,,,0.67,,2013-01-31 21:22:00,
2013-01-31 16:32:00,35.0,19.0,29.21,WSW,248,6.0,16.0,52,0.00,,,0.67,,2013-01-31 21:32:00,
2013-01-31 16:42:00,35.0,19.0,29.21,WSW,248,6.0,16.0,52,0.00,,,0.67,,2013-01-31 21:42:00,
2013-01-31 16:52:00,34.0,19.0,29.21,South,188,6.0,11.0,53,0.00,,,0.60,,2013-01-31 21:52:00,
2013-01-31 17:03:00,34.0,18.0,29.23,West,263,8.0,18.0,51,0.00,,,0.60,,2013-01-31 22:03:00,
2013-01-31 17:11:00,34.0,17.0,29.23,NNW,327,5.0,17.0,49,0.00,,,0.60,,2013-01-31 22:11:00,
2013-01-31 17:22:00,34.0,17.0,29.23,NNW,327,5.0,17.0,49,0.00,,,0.60,,2013-01-31 22:22:00,
2013-01-31 17:33:00,33.0,16.0,29.24,SSW,211,6.0,19.0,49,0.00,,,0.60,,2013-01-31 22:33:00,
2013-01-31 17:42:00,33.0,16.0,29.24,SSW,211,6.0,19.0,49,0.00,,,0.60,,2013-01-31 22:42:00,
2013-01-31 17:52:00,33.0,16.0,29.25,WSW,255,6.0,18.0,49,0.00,,,0.60,,2013-01-31 22:52:00,
2013-01-31 18:02:00,33.0,17.0,29.26,West,273,5.0,14.0,51,0.00,,,0.57,,2013-01-31 23:02:00,
2013-01-31 18:12:00,33.0,17.0,29.26,West,273,5.0,14.0,51,0.00,,,0.57,,2013-01-31 23:12:00,
2013-01-31 18:22:00,33.0,18.0,29.26,NE,36,7.0,15.0,53,0.00,,,0.57,,2013-01-31 23:22:00,
2013-01-31 18:32:00,32.0,19.0,29.28,South,189,7.0,17.0,57,0.00,,,0.57,,2013-01-31 23:32:00,
2013-01-31 18:42:00,32.0,19.0,29.28,South,189,7.0,17.0,57,0.00,,,0.57,,2013-01-31 23:42:00,
2013-01-31 18:52:00,32.0,20.0,29.29,WNW,294,4.0,20.0,60,0.00,,,0.57,,2013-01-31 23:52:00,
2013-01-31 19:01:00,32.0,16.0,29.31,West,265,5.0,17.0,52,0.00,,,0.57,,2013-02-01 00:01:00,
2013-01-31 19:11:00,32.0,16.0,29.31,West,265,5.0,17.0,52,0.00,,,0.57,,2013-02-01 00:11:00,
2013-01-31 19:22:00,32.0,15.0,29.31,WSW,242,8.0,15.0,49,0.00,,,0.57,,2013-02-01 00:22:00,
2013-01-31 19:32:00,31.0,15.0,29.32,West,277,3.0,15.0,50,0.00,,,0.57,,2013-02-01 00:32:00,
2013-01-31 19:42:00,31.0,15.0,29.32,West,277,3.0,15.0,50,0.00,,,0.57,,2013-02-01 00:42:00,
2013-01-31 19:52:00,31.0,15.0,29.32,SSW,196,5.0,15.0,51,0.00,,,0.56,,2013-02-01 00:52:00,
2013-01-31 20:01:00,31.0,15.0,29.33,South,176,327.0,327.0,51,-99.99,,,-99.99,,2013-02-01 01:01:00,
2013-01-31 20:11:00,31.0,14.0,29.33,WSW,243,327.0,327.0,48,-99.99,,,-99.99,,2013-02-01 01:11:00,
2013-01-31 20:21:00,31.0,14.0,29.33,WSW,243,327.0,327.0,48,-99.99,,,-99.99,,2013-02-01 01:21:00,
2013-01-31 20:32:00,30.0,13.0,29.33,WNW,302,3.0,17.0,49,0.00,,,0.56,,2013-02-01 01:32:00,
2013-01-31 20:42:00,30.0,13.0,29.33,WNW,302,3.0,17.0,49,0.00,,,0.56,,2013-02-01 01:42:00,
2013-01-31 20:52:00,30.0,13.0,29.33,WSW,241,8.0,19.0,49,0.00,,,0.56,,2013-02-01 01:52:00,
2013-01-31 21:02:00,30.0,13.0,29.35,WNW,291,327.0,327.0,49,-99.99,,,-99.99,,2013-02-01 02:02:00,
2013-01-31 21:11:00,30.0,13.0,29.35,WNW,291,327.0,327.0,49,-99.99,,,-99.99,,2013-02-01 02:11:00,
2013-01-31 21:21:00,30.0,13.0,29.35,WNW,291,327.0,327.0,49,-99.99,,,-99.99,,2013-02-01 02:21:00,
2013-01-31 21:32:00,30.0,15.0,29.37,WSW,240,4.0,13.0,53,0.00,,,0.53,,2013-02-01 02:32:00,
2013-01-31 21:42:00,30.0,15.0,29.37,WSW,240,4.0,13.0,53,0.00,,,0.53,,2013-02-01 02:42:00,
2013-01-31 21:52:00,29.0,15.0,29.38,WNW,292,7.0,22.0,55,0.00,,,0.52,,2013-02-01 02:52:00,
2013-01-31 22:02:00,29.0,16.0,29.38,West,270,4.0,16.0,57,0.00,,,0.52,,2013-02-01 03:02:00,
2013-01-31 22:12:00,29.0,16.0,29.38,West,270,4.0,16.0,57,0.00,,,0.52,,2013-02-01 03:12:00,
2013-01-31 22:21:00,29.0,16.0,29.38,West,270,4.0,16.0,57,0.00,,,0.52,,2013-02-01 03:21:00,
2013-01-31 22:33:00,27.0,20.0,29.41,WNW,283,6.0,12.0,73,0.00,,,0.52,,2013-02-01 03:33:00,
2013-01-31 22:52:00,27.0,20.0,29.41,West,277,5.0,19.0,76,0.00,,,0.52,,2013-02-01 03:52:00,
2013-01-31 23:02:00,27.0,19.0,29.41,NNW,334,4.0,14.0,72,0.00,,,0.52,,2013-02-01 04:02:00,
2013-01-31 23:11:00,27.0,19.0,29.42,West,260,4.0,18.0,71,0.00,,,0.52,,2013-02-01 04:11:00,
2013-01-31 23:21:00,27.0,19.0,29.42,West,260,4.0,18.0,71,0.00,,,0.52,,2013-02-01 04:21:00,
2013-01-31 23:32:00,26.0,18.0,29.42,North,9,5.0,14.0,70,0.00,,,0.52,,2013-02-01 04:32:00,
2013-01-31 23:41:00,26.0,18.0,29.42,North,9,5.0,14.0,70,0.00,,,0.52,,2013-02-01 04:41:00,
2013-01-31 23:51:00,26.0,18.0,29.42,WSW,256,6.0,13.0,70,0.00,,,0.52,,2013-02-01 04:51:00,